| time (UTC) | temp F | wind direction | speed knots | gust knots | rain 1hr in | rain 24hr in | rain mn in | humidity % | barometer mb |
| 20260902014552 | 75 | 119 | 0.9 | 2.6 | 0.00 | 0.00 | 0.00 | 28 | 1008.1 |
| 20260902013051 | 79 | 119 | 0.9 | 5.2 | 0.00 | 0.00 | 0.00 | 25 | 1008.1 |
| 20260902011601 | 80 | 119 | 4.3 | 7.8 | 0.00 | 0.00 | 0.00 | 24 | 1008.2 |
| 20260902010105 | 81 | 117 | 4.3 | 8.7 | 0.00 | 0.00 | 0.00 | 24 | 1008.2 |
| 20260902004553 | 81 | 119 | 7.0 | 11.3 | 0.00 | 0.00 | 0.00 | 24 | 1008.2 |
| 20260902003101 | 82 | 146 | 6.1 | 10.4 | 0.00 | 0.00 | 0.00 | 24 | 1008.2 |
| 20260902001610 | 82 | 140 | 8.7 | 13.9 | 0.00 | 0.00 | 0.00 | 24 | 1008.2 |
| 20260902000056 | 83 | 144 | 7.0 | 11.3 | 0.00 | 0.00 | 0.00 | 21 | 1008.3 |
| 20260901234552 | 84 | 106 | 6.1 | 9.6 | 0.00 | 0.00 | 0.00 | 23 | 1008.3 |
| 20260901233057 | 83 | 157 | 3.5 | 10.4 | 0.00 | 0.00 | 0.00 | 21 | 1008.5 |
| 20260901231552 | 83 | 128 | 5.2 | 12.2 | 0.00 | 0.00 | 0.00 | 21 | 1008.6 |
| 20260901230053 | 83 | 181 | 5.2 | 9.6 | 0.00 | 0.00 | 0.00 | 21 | 1008.8 |
| 20260901224604 | 83 | 113 | 6.1 | 12.2 | 0.00 | 0.00 | 0.00 | 22 | 1008.9 |
| 20260901223055 | 83 | 153 | 2.6 | 8.7 | 0.00 | 0.00 | 0.00 | 22 | 1009.2 |
| 20260901221604 | 82 | 178 | 7.0 | 9.6 | 0.00 | 0.00 | 0.00 | 23 | 1009.2 |
| 20260901220057 | 82 | 150 | 1.7 | 12.2 | 0.00 | 0.00 | 0.00 | 24 | 1009.4 |
| 20260901214601 | 82 | 142 | 5.2 | 9.6 | 0.00 | 0.00 | 0.00 | 24 | 1009.6 |
| 20260901213058 | 82 | 67 | 1.7 | 7.8 | 0.00 | 0.00 | 0.00 | 24 | 1009.8 |
| 20260901211600 | 82 | 153 | 3.5 | 10.4 | 0.00 | 0.00 | 0.00 | 25 | 1010.0 |
| 20260901210112 | 80 | 138 | 0.0 | 9.6 | 0.00 | 0.00 | 0.00 | 25 | 1010.2 |
| 20260901204551 | 81 | 176 | 7.0 | 12.2 | 0.00 | 0.00 | 0.00 | 25 | 1010.4 |
| 20260901203102 | 80 | 172 | 6.1 | 11.3 | 0.00 | 0.00 | 0.00 | 26 | 1010.5 |
| 20260901201554 | 80 | 141 | 5.2 | 10.4 | 0.00 | 0.00 | 0.00 | 26 | 1010.7 |
| 20260901200056 | 79 | 159 | 2.6 | 9.6 | 0.00 | 0.00 | 0.00 | 26 | 1010.8 |
| 20260901194555 | 79 | 155 | 4.3 | 11.3 | 0.00 | 0.00 | 0.00 | 26 | 1011.0 |
| 20260901193054 | 78 | 160 | 4.3 | 12.2 | 0.00 | 0.00 | 0.00 | 27 | 1011.2 |
| 20260901191602 | 78 | 189 | 4.3 | 12.2 | 0.00 | 0.00 | 0.00 | 28 | 1011.2 |
| 20260901190059 | 77 | 115 | 7.0 | 13.9 | 0.00 | 0.00 | 0.00 | 28 | 1011.5 |
| 20260901184605 | 77 | 182 | 6.1 | 13.9 | 0.00 | 0.00 | 0.00 | 28 | 1011.6 |
| 20260901183105 | 76 | 180 | 7.8 | 14.8 | 0.00 | 0.00 | 0.00 | 30 | 1011.8 |
| 20260901181552 | 75 | 126 | 7.8 | 14.8 | 0.00 | 0.00 | 0.00 | 31 | 1012.0 |
| 20260901180059 | 75 | 152 | 7.0 | 13.0 | 0.00 | 0.00 | 0.00 | 32 | 1012.1 |
| 20260901174554 | 74 | 144 | 7.8 | 13.0 | 0.00 | 0.00 | 0.00 | 33 | 1012.2 |
| 20260901173055 | 73 | 157 | 7.8 | 14.8 | 0.00 | 0.00 | 0.00 | 35 | 1012.3 |
| 20260901171603 | 72 | 131 | 8.7 | 13.0 | 0.00 | 0.00 | 0.00 | 35 | 1012.6 |
| 20260901170056 | 71 | 162 | 9.6 | 13.0 | 0.00 | 0.00 | 0.00 | 36 | 1012.8 |
| 20260901164555 | 69 | 117 | 7.8 | 12.2 | 0.00 | 0.00 | 0.00 | 40 | 1012.7 |
| 20260901163057 | 67 | 151 | 8.7 | 13.0 | 0.00 | 0.00 | 0.00 | 42 | 1012.9 |
| 20260901161617 | 67 | 135 | 7.8 | 12.2 | 0.00 | 0.00 | 0.00 | 43 | 1012.9 |
| 20260901160104 | 66 | 118 | 7.0 | 12.2 | 0.00 | 0.00 | 0.00 | 44 | 1012.8 |
| 20260901154615 | 65 | 131 | 7.8 | 13.0 | 0.00 | 0.00 | 0.00 | 46 | 1012.8 |
| 20260901153109 | 65 | 123 | 9.6 | 13.0 | 0.00 | 0.00 | 0.00 | 47 | 1012.9 |
| 20260901151551 | 63 | 122 | 8.7 | 12.2 | 0.00 | 0.00 | 0.00 | 49 | 1012.9 |
| 20260901150109 | 63 | 138 | 7.0 | 11.3 | 0.00 | 0.00 | 0.00 | 51 | 1013.2 |
| 20260901144555 | 61 | 140 | 6.1 | 10.4 | 0.00 | 0.00 | 0.00 | 54 | 1013.3 |
| 20260901143108 | 60 | 140 | 5.2 | 8.7 | 0.00 | 0.00 | 0.00 | 57 | 1013.1 |
| 20260901141604 | 57 | 160 | 2.6 | 4.3 | 0.00 | 0.00 | 0.00 | 63 | 1013.1 |
| 20260901140100 | 56 | 160 | 2.6 | 4.3 | 0.00 | 0.00 | 0.00 | 65 | 1013.0 |
| 20260901134554 | 53 | 160 | 0.0 | 4.3 | 0.00 | 0.00 | 0.00 | 70 | 1012.8 |
| 20260901133104 | 51 | 160 | 1.7 | 3.5 | 0.00 | 0.00 | 0.00 | 72 | 1012.5 |
| 20260901131557 | 50 | 0 | 0.0 | 3.5 | 0.00 | 0.00 | 0.00 | 75 | 1012.4 |
| 20260901130059 | 49 | 160 | 2.6 | 4.3 | 0.00 | 0.00 | 0.00 | 74 | 1012.6 |
| 20260901124554 | 47 | 160 | 1.7 | 4.3 | 0.00 | 0.00 | 0.00 | 78 | 1012.8 |
| 20260901123054 | 47 | 0 | 0.0 | 3.5 | 0.00 | 0.00 | 0.00 | 75 | 1012.9 |
| 20260901121558 | 49 | 0 | 0.9 | 3.5 | 0.00 | 0.00 | 0.00 | 71 | 1012.7 |
| 20260901120109 | 50 | 0 | 0.0 | 1.7 | 0.00 | 0.00 | 0.00 | 70 | 1012.6 |
| 20260901114552 | 49 | 0 | 0.0 | 0.9 | 0.00 | 0.00 | 0.00 | 72 | 1012.6 |
| 20260901113101 | 50 | 0 | 0.0 | 3.5 | 0.00 | 0.00 | 0.00 | 69 | 1012.7 |
| 20260901111601 | 51 | 0 | 0.0 | 3.5 | 0.00 | 0.00 | 0.00 | 67 | 1012.9 |
| 20260901110053 | 52 | 0 | 0.0 | 3.5 | 0.00 | 0.00 | 0.00 | 66 | 1012.9 |
| 20260901104601 | 53 | 160 | 3.5 | 5.2 | 0.00 | 0.00 | 0.00 | 64 | 1012.7 |
| 20260901103104 | 54 | 167 | 3.5 | 4.3 | 0.00 | 0.00 | 0.00 | 63 | 1012.8 |
| 20260901101554 | 54 | 0 | 2.6 | 3.5 | 0.00 | 0.00 | 0.00 | 64 | 1013.1 |
| 20260901100055 | 52 | 0 | 0.0 | 5.2 | 0.00 | 0.00 | 0.00 | 69 | 1013.1 |
| 20260901094559 | 48 | 169 | 3.5 | 5.2 | 0.00 | 0.00 | 0.00 | 74 | 1013.0 |
| 20260901093056 | 47 | 169 | 2.6 | 4.3 | 0.00 | 0.00 | 0.00 | 73 | 1013.0 |
| 20260901091604 | 49 | 169 | 2.6 | 4.3 | 0.00 | 0.00 | 0.00 | 71 | 1013.0 |
| 20260901084607 | 48 | 169 | 2.6 | 4.3 | 0.00 | 0.00 | 0.00 | 71 | 1013.1 |
| 20260901083103 | 48 | 169 | 2.6 | 5.2 | 0.00 | 0.00 | 0.00 | 71 | 1013.1 |
| 20260901081556 | 49 | 169 | 3.5 | 5.2 | 0.00 | 0.00 | 0.00 | 70 | 1013.2 |
| 20260901080107 | 51 | 169 | 2.6 | 4.3 | 0.00 | 0.00 | 0.00 | 67 | 1013.4 |
| 20260901074556 | 49 | 169 | 3.5 | 4.3 | 0.00 | 0.00 | 0.00 | 69 | 1013.6 |
| 20260901073100 | 49 | 0 | 0.0 | 0.0 | 0.00 | 0.00 | 0.00 | 68 | 1013.7 |
| 20260901071602 | 49 | 0 | 0.0 | 3.5 | 0.00 | 0.00 | 0.00 | 69 | 1013.8 |
| 20260901070100 | 49 | 169 | 3.5 | 4.3 | 0.00 | 0.00 | 0.00 | 67 | 1013.7 |
| 20260901064603 | 50 | 169 | 1.7 | 4.3 | 0.00 | 0.00 | 0.00 | 67 | 1013.8 |
| 20260901063058 | 50 | 169 | 2.6 | 4.3 | 0.00 | 0.00 | 0.00 | 66 | 1013.8 |
| 20260901061555 | 52 | 169 | 1.7 | 4.3 | 0.00 | 0.00 | 0.00 | 63 | 1014.0 |
| 20260901060101 | 54 | 169 | 3.5 | 5.2 | 0.00 | 0.00 | 0.00 | 57 | 1013.9 |
| 20260901054553 | 58 | 0 | 0.0 | 4.3 | 0.00 | 0.00 | 0.00 | 53 | 1014.0 |
| 20260901053106 | 58 | 169 | 0.0 | 3.5 | 0.00 | 0.00 | 0.00 | 52 | 1014.2 |
| 20260901051555 | 58 | 169 | 0.9 | 5.2 | 0.00 | 0.00 | 0.00 | 53 | 1014.1 |
| 20260901050055 | 57 | 0 | 0.0 | 0.0 | 0.00 | 0.00 | 0.00 | 55 | 1014.1 |
| 20260901044607 | 57 | 0 | 0.0 | 1.7 | 0.00 | 0.00 | 0.00 | 55 | 1014.2 |
| 20260901043100 | 57 | 0 | 0.0 | 1.7 | 0.00 | 0.00 | 0.00 | 55 | 1014.1 |
| 20260901041555 | 58 | 169 | 0.9 | 3.5 | 0.00 | 0.00 | 0.00 | 52 | 1014.0 |
| 20260901040057 | 60 | 0 | 0.0 | 3.5 | 0.00 | 0.00 | 0.00 | 49 | 1014.0 |
| 20260901034556 | 58 | 169 | 0.9 | 1.7 | 0.00 | 0.00 | 0.00 | 51 | 1014.0 |
| 20260901033054 | 59 | 0 | 0.0 | 0.0 | 0.00 | 0.00 | 0.00 | 49 | 1013.7 |
| 20260901031601 | 59 | 0 | 0.0 | 0.0 | 0.00 | 0.00 | 0.00 | 49 | 1013.7 |
| 20260901030057 | 59 | 0 | 0.0 | 0.0 | 0.00 | 0.00 | 0.00 | 48 | 1013.5 |
| 20260901024614 | 60 | 0 | 0.0 | 0.0 | 0.00 | 0.00 | 0.00 | 47 | 1013.3 |
| 20260901023100 | 62 | 0 | 0.0 | 1.7 | 0.00 | 0.00 | 0.00 | 43 | 1013.3 |
| 20260901021603 | 65 | 0 | 0.0 | 3.5 | 0.00 | 0.00 | 0.00 | 40 | 1013.2 |
| 20260901020100 | 68 | 0 | 0.0 | 1.7 | 0.00 | 0.00 | 0.00 | 38 | 1013.4 |